Location: ???????
(54.6339°N, 39.4245°E)
Time: 11:30:18
(UTC+00:00)

Cosmos 2061 Rocket - Pass Details

Date: 19 May 2025
Orbit: 965 x 1011 km, 82.9° (Epoch: 14 June)

Event Time Altitude Azimuth Distance (km) Brightness Sun altitude
Rises 22:04:03 0° 349° (NNW) 3,760 8.4 -14.8°
Reaches altitude 10° 22:06:38 10° 351° (N) 2,804 7.6 -14.7°
Maximum altitude 22:13:05 71° 76° (ENE) 1,063 4.3 -14.5°
Enters shadow 22:18:49 13° 160° (SSE) 2,538 5.7 -14.3°
